Theta_e
325 323 324 324 324 325 327 326 326 327 329 333 330 328 328 333 343 343 347 350 349 349 349 349 350 350 350 351 350 349 349 349 349 349 348 347 346 346 347 346 346 345 345 346
322 323 324 324 324 325 325 325 325 325 326 328 329 328 327 327 335 340 341 343 349 349 350 350 350 350 349 349 349 349 349 348 349 348 348 347 346 346 347 345 346 345 344 345
324 325 325 325 325 325 324 323 324 325 326 327 328 327 327 327 329 331 336 341 343 346 348 348 347 349 348 348 349 349 349 347 347 348 348 348 348 346 346 345 346 344 344 345
323 324 326 324 323 322 324 324 325 328 325 326 326 326 326 327 329 334 339 341 342 345 346 347 346 347 347 347 349 349 349 348 347 347 349 349 348 346 345 345 344 344 343 345
323 324 324 325 325 323 325 325 326 326 324 324 326 325 326 328 331 331 330 339 341 343 345 346 346 346 346 347 347 349 348 348 348 348 349 348 347 344 344 345 344 344 343 345
321 323 324 324 326 326 324 324 322 322 321 324 323 327 331 330 332 331 335 339 337 340 344 346 345 346 347 347 348 348 348 349 348 349 349 347 347 344 345 344 344 343 343 345
322 324 323 325 326 324 323 320 323 326 326 327 322 330 330 333 333 338 342 344 340 335 345 345 345 347 348 348 347 347 348 348 349 348 348 347 347 347 347 348 347 346 345 344
322 324 326 325 326 326 326 322 322 330 327 326 324 330 333 337 341 344 346 345 345 345 345 346 346 346 347 347 347 348 349 348 349 348 348 348 347 346 346 347 345 345 346 344
322 327 327 330 328 324 326 325 322 322 321 325 327 330 334 341 341 344 346 346 345 346 346 347 342 336 337 346 347 348 349 349 349 349 349 349 349 348 346 346 346 346 343 342
325 328 328 328 327 326 326 324 325 321 330 332 329 330 330 343 342 342 343 345 349 348 347 346 338 338 338 347 345 348 348 348 349 349 350 349 350 349 349 348 347 345 343 341
324 325 328 326 326 326 323 323 320 320 323 330 330 330 333 342 342 341 342 347 349 349 348 344 335 338 338 342 349 350 349 349 350 349 350 351 351 350 350 349 347 344 344 343
326 321 327 329 326 323 323 324 319 321 323 324 325 329 337 340 338 337 342 347 348 347 344 342 340 338 337 337 346 344 347 349 350 350 350 351 352 351 350 348 344 342 341 343
326 323 325 326 323 322 322 323 321 316 317 323 324 325 332 331 333 335 337 348 347 345 346 344 339 342 337 335 335 334 338 341 351 352 351 351 352 352 349 345 342 344 343 342
325 319 323 326 325 323 326 325 322 320 320 321 321 323 332 331 331 332 342 346 347 346 345 342 340 341 342 341 340 337 334 344 350 351 353 352 352 352 350 347 342 343 344 343
320 323 323 322 323 324 325 326 326 325 322 323 323 323 331 333 330 330 340 341 342 342 341 339 339 338 338 341 343 347 349 344 348 351 352 352 352 351 350 349 346 342 344 344
316 323 325 327 325 324 326 324 324 325 331 322 333 337 331 338 337 337 337 336 336 335 335 334 334 334 334 335 344 343 343 350 346 351 349 352 352 351 351 350 349 343 344 344
319 318 318 321 322 324 323 323 326 330 329 330 336 331 332 331 331 330 328 328 330 334 334 334 335 334 333 333 334 337 338 340 344 351 352 350 351 351 350 350 349 348 343 344
315 315 316 318 319 324 320 326 327 327 326 326 328 327 328 329 327 326 325 325 327 326 326 327 327 329 331 333 333 332 333 333 335 340 349 353 350 351 351 350 349 349 346 342
312 314 317 319 319 320 326 327 326 327 327 325 324 324 324 325 327 328 325 325 325 324 324 324 325 325 326 328 330 332 332 332 332 334 339 351 351 351 350 351 351 350 350 346
317 313 317 319 324 326 325 325 324 324 327 324 324 323 324 324 324 323 325 324 325 325 325 324 325 325 325 325 326 327 329 330 332 332 333 336 346 350 349 351 350 349 349 349
319 318 323 323 325 327 323 323 324 327 324 324 324 324 324 323 324 324 324 324 324 324 324 324 324 324 324 324 324 323 323 324 330 334 331 330 332 341 350 350 350 350 350 350
320 320 322 320 324 326 324 323 325 321 323 323 323 322 322 322 323 323 323 323 323 323 323 323 323 322 324 325 325 325 324 323 325 333 333 331 328 332 343 350 350 350 350 350
321 320 321 321 321 322 324 324 324 323 322 322 322 322 322 322 323 323 324 324 324 324 324 323 323 323 323 321 321 321 324 324 324 330 333 332 329 327 332 336 346 348 347 350
319 321 320 319 321 323 323 323 324 322 322 322 323 323 323 323 323 324 325 324 324 324 324 324 324 323 323 323 322 322 322 323 325 331 333 332 331 327 331 334 335 344 346 346
320 321 320 318 319 322 322 322 322 322 323 323 324 324 323 323 323 323 322 322 323 323 323 324 324 323 323 323 323 323 323 323 325 329 333 332 331 333 332 335 335 344 343 334
322 319 319 319 321 322 322 323 324 324 325 325 324 324 324 324 324 323 322 322 323 324 324 324 324 324 324 323 323 323 323 322 322 324 330 331 329 332 334 336 336 341 343 339
Wind_Speed
5 5 5 11 6 6 6 4 8 4 3 4 7 7 11 18 25 19 25 32 37 41 38 39 39 35 35 35 33 30 28 26 28 27 25 22 22 21 22 18 20 20 16 15
7 6 11 5 6 6 8 6 6 5 4 5 3 9 10 6 12 31 31 33 41 37 37 37 39 36 36 33 33 31 28 25 25 27 24 23 20 22 22 19 22 19 18 17
5 11 8 5 14 4 4 6 3 5 5 4 5 9 5 5 9 13 24 39 37 39 41 37 37 38 35 34 31 30 27 22 24 25 24 25 22 23 25 24 25 22 20 21
5 6 3 4 7 5 2 2 3 4 3 3 3 5 7 7 8 5 8 25 36 36 37 41 37 38 37 32 31 30 27 24 23 23 24 24 23 24 27 28 27 23 21 23
8 7 5 5 5 6 7 2 3 3 2 3 4 3 8 5 7 6 5 16 25 32 39 41 41 37 36 31 30 30 27 24 23 24 23 25 24 21 20 25 27 27 25 23
9 5 5 8 4 3 3 4 6 5 3 3 5 4 6 5 5 5 9 8 14 30 36 38 35 36 34 30 33 31 29 26 22 24 25 25 23 20 20 20 23 27 29 27
6 5 5 4 2 4 7 7 4 5 5 5 3 1 2 10 7 6 6 12 3 16 19 18 21 27 26 29 31 32 30 28 25 23 25 26 24 21 22 23 22 21 24 30
1 7 5 1 4 4 3 6 5 3 2 5 3 4 3 5 8 16 22 16 13 16 22 23 19 20 25 28 30 33 32 28 27 26 23 24 23 21 23 23 22 22 21 22
4 4 5 3 3 5 1 3 3 5 2 2 3 1 2 5 10 16 19 26 23 24 27 30 22 7 14 23 30 31 31 31 31 27 23 21 24 22 22 22 22 19 15 15
5 1 2 6 7 7 7 2 4 4 0 3 5 5 4 3 6 6 10 18 27 28 27 28 26 9 12 23 29 34 35 35 34 31 27 20 20 22 19 20 20 15 15 18
4 4 5 2 5 1 5 4 4 4 3 3 2 6 5 5 1 3 5 20 25 27 30 34 28 9 11 22 26 27 31 32 34 34 32 25 21 21 21 18 17 15 17 20
1 5 1 1 2 3 5 3 4 5 6 2 4 6 4 6 6 4 7 13 18 23 23 26 25 13 11 18 22 17 12 21 29 33 34 30 24 23 23 18 17 14 16 20
3 3 3 8 6 6 6 4 2 3 3 4 3 5 3 5 8 8 12 16 17 17 17 23 24 17 12 11 11 11 17 19 23 30 35 35 29 27 25 19 18 22 16 22
5 3 6 6 6 3 2 3 2 3 2 3 5 6 7 4 3 4 13 21 22 19 17 17 14 4 7 10 12 15 18 18 21 26 33 36 33 27 26 22 19 20 25 24
4 3 2 4 3 3 5 3 1 3 5 5 7 4 5 6 5 9 23 19 22 20 18 17 13 11 11 12 14 18 15 22 21 19 29 32 36 28 25 24 22 20 25 26
3 1 2 2 3 0 2 3 4 1 2 6 4 3 6 9 22 20 15 17 17 17 15 12 11 11 11 13 12 13 16 8 21 22 25 31 36 32 27 24 24 23 24 27
3 5 3 5 2 3 3 1 4 4 3 4 2 1 5 8 12 14 16 16 16 11 10 8 8 6 6 6 10 13 18 16 13 16 31 34 30 31 29 26 24 26 25 26
6 6 3 3 3 1 4 4 10 11 4 6 5 5 5 6 10 14 14 12 10 9 10 8 6 5 6 7 9 11 14 17 18 17 20 23 31 33 31 30 27 27 27 27
3 5 3 4 4 3 4 2 1 2 1 2 2 5 10 14 6 6 11 11 10 13 12 11 11 10 10 12 13 15 15 15 18 21 18 18 21 28 34 36 33 28 29 30
7 5 4 3 3 6 1 5 9 3 1 2 4 5 8 11 4 5 16 19 17 17 17 21 20 20 21 20 21 20 21 21 19 23 21 20 18 22 32 35 34 32 29 32
4 4 2 1 2 1 4 10 11 3 3 4 4 8 10 4 11 22 24 25 23 24 24 21 19 22 26 27 25 25 27 25 19 19 21 21 22 21 24 30 31 32 35 31
2 1 1 1 1 4 8 2 3 2 2 10 12 17 19 25 29 31 30 31 31 30 29 27 28 27 25 23 24 23 25 28 25 19 19 22 22 21 20 23 31 30 35 35
2 4 3 5 4 3 2 2 7 6 19 22 23 28 30 31 34 36 38 37 36 35 33 29 29 30 29 27 29 31 27 26 26 24 18 21 22 22 21 20 25 30 31 35
3 2 2 3 3 5 10 12 10 20 22 22 23 26 28 33 35 37 38 37 37 37 37 34 29 31 32 31 31 30 28 27 24 24 20 19 23 24 23 23 19 24 30 25
3 2 0 3 6 13 6 8 20 25 25 26 27 28 28 31 35 37 38 41 41 40 34 29 29 31 32 32 32 29 27 24 24 23 23 20 19 22 23 24 19 22 31 38
4 5 3 5 7 9 19 26 28 29 32 34 35 35 34 33 35 35 38 37 37 37 33 29 31 33 34 35 35 33 30 29 26 26 23 22 22 21 21 20 22 20 19 23
Wind_Direction
23 45 269 252 195 207 267 230 246 260 228 214 242 263 267 194 213 211 203 207 208 212 217 218 222 227 225 223 218 218 221 225 224 226 220 213 226 225 225 225 222 219 221 226
8 279 260 261 183 209 227 266 285 301 324 173 223 271 269 178 216 212 207 207 215 215 218 221 222 223 224 220 216 215 220 226 225 226 226 224 231 232 231 236 228 228 225 228
167 249 349 332 302 296 218 216 238 224 327 337 333 307 316 264 251 248 224 223 219 213 214 213 216 219 220 218 217 215 216 220 223 224 225 228 235 236 231 227 223 228 228 222
237 289 254 320 263 144 268 191 237 278 57 284 59 282 315 317 316 21 205 201 213 211 216 210 211 212 215 216 219 217 218 218 219 223 224 230 237 232 231 232 233 234 233 228
251 290 324 311 247 196 227 20 11 353 71 5 341 73 270 336 353 341 296 237 218 216 213 209 210 209 213 211 215 218 217 218 224 221 224 230 239 244 249 245 241 241 238 233
249 266 220 215 257 235 38 55 39 44 50 29 259 140 287 333 316 1 23 341 246 224 217 211 207 206 211 212 218 221 217 217 222 226 226 228 237 241 237 236 238 242 242 236
316 276 273 193 283 358 69 51 354 3 5 233 342 61 281 328 355 113 60 18 22 212 191 169 177 193 208 215 220 223 219 221 222 221 227 231 232 238 246 245 249 248 244 235
113 335 347 291 182 182 35 128 148 223 245 268 314 358 317 323 52 67 62 65 94 123 137 153 158 185 214 217 228 232 225 221 225 226 229 234 237 241 247 251 262 266 250 245
144 277 314 354 85 105 26 3 196 109 56 6 295 206 335 356 31 45 55 68 91 127 147 139 132 96 268 235 236 233 232 232 232 233 233 239 239 245 249 255 267 265 248 223
189 339 287 312 47 19 97 182 24 9 287 279 293 286 228 324 38 25 43 73 103 133 143 147 147 126 245 235 239 231 232 234 236 238 242 242 245 248 253 256 264 250 230 227
125 107 277 44 34 29 17 16 39 114 125 165 279 267 201 194 225 80 91 103 120 143 153 158 169 178 175 246 241 242 232 237 240 241 243 245 247 254 249 248 260 246 232 221
53 125 77 149 305 355 88 93 106 109 295 186 158 273 253 197 211 222 117 116 117 149 163 178 189 178 209 227 229 243 254 254 253 247 245 247 248 251 248 247 243 226 239 230
174 30 34 346 358 8 55 0 103 108 85 239 128 269 235 263 284 89 142 131 124 125 148 188 196 205 229 247 273 291 261 273 275 255 244 245 248 248 245 248 244 224 228 225
83 108 155 187 200 157 74 351 81 109 116 272 230 286 275 307 30 118 134 130 124 112 122 151 175 193 329 313 316 296 274 247 264 258 244 245 250 251 246 244 244 235 226 222
86 123 191 233 232 192 185 183 260 210 222 188 257 266 335 331 329 185 139 119 115 109 101 95 93 66 28 5 357 358 312 249 248 256 253 248 253 253 250 242 245 236 229 227
4 159 178 268 228 329 222 307 254 35 345 260 78 68 353 29 78 75 84 98 100 104 101 89 70 47 18 5 10 8 359 310 256 253 254 253 253 253 255 248 240 243 234 230
144 141 105 247 318 332 339 246 102 108 4 247 146 340 351 40 57 62 60 62 63 77 88 92 94 78 20 1 352 353 356 341 320 291 252 259 261 259 258 256 246 238 241 233
148 124 122 210 43 233 269 83 112 110 40 9 46 25 38 106 106 65 38 30 40 35 32 34 35 33 12 344 327 332 335 332 327 315 299 268 257 255 258 255 247 239 236 234
143 125 123 151 184 270 155 297 67 157 205 334 40 355 8 4 271 238 21 22 8 352 343 335 341 333 325 327 327 314 312 324 321 317 324 300 276 260 254 256 253 245 237 234
76 72 116 126 167 214 313 317 336 152 253 279 354 1 343 352 344 264 320 323 316 311 300 302 302 306 306 304 300 297 301 306 313 316 315 320 308 271 259 255 252 252 246 244
0 360 85 77 235 11 323 304 322 179 239 353 344 321 312 279 266 293 293 296 298 297 295 292 292 288 289 292 295 287 288 287 292 299 311 311 312 305 270 258 251 249 253 250
122 84 305 48 263 256 349 323 5 180 45 329 306 305 295 293 290 288 286 285 285 285 285 289 290 284 278 281 290 293 285 290 289 285 298 307 301 304 305 264 260 253 251 251
358 175 206 170 225 206 338 154 163 339 330 320 308 307 306 295 290 291 292 291 288 286 285 286 281 283 283 285 282 285 283 288 285 279 287 302 300 298 301 302 273 262 258 250
321 47 118 53 237 242 298 274 248 315 308 303 302 302 300 294 294 292 290 288 289 289 289 285 278 280 281 283 283 281 282 283 280 277 274 294 303 303 304 306 295 265 254 263
207 67 88 279 282 303 288 285 295 308 307 303 306 304 299 296 286 284 283 285 286 286 289 287 278 276 279 281 282 275 270 279 281 282 271 275 292 305 306 310 297 258 262 248
196 183 156 228 266 251 287 316 318 309 309 310 304 302 301 298 299 294 289 284 281 282 284 289 282 278 281 286 279 271 266 273 278 279 276 269 278 290 304 309 304 303 264 255